W5UGD Weather Reports


time (UTC)temp
C
wind
direction
speed
KPH
gust
KPH
rain 1hr
cm
rain 24hr
cm
rain mn
cm
humidity
%
barometer
mb
20260509002503 17 0 0.0 0.0 0.00 0.00 0.00 74 1013.8
20260509002003 17 0 0.0 0.0 0.00 0.00 0.00 73 1013.7
20260509001503 17 0 0.0 0.0 0.00 0.00 0.00 73 1013.6
20260509001024 17 0 0.0 0.0 0.00 0.00 0.00 74 1013.5
20260509000503 17 0 0.0 0.0 0.00 0.00 0.00 74 1013.4
20260509000003 17 0 0.0 0.0 0.00 0.00 0.00 74 1013.5
20260508235503 18 0 0.0 0.0 0.00 0.00 0.00 72 1013.4
20260508235003 18 0 0.0 0.0 0.00 0.00 0.00 72 1013.4
20260508234503 18 0 0.0 0.0 0.00 0.00 0.00 72 1013.3
20260508234003 18 95 0.0 1.6 0.00 0.00 0.00 74 1013.4
20260508233503 18 94 0.0 1.6 0.00 0.00 0.00 72 1013.4
20260508233003 18 94 0.0 1.6 0.00 0.00 0.00 72 1013.5
20260508232503 18 0 0.0 0.0 0.00 0.00 0.00 73 1013.5
20260508232024 18 0 0.0 0.0 0.00 0.00 0.00 71 1013.4
20260508231503 19 0 0.0 0.0 0.00 0.00 0.00 69 1013.5
20260508231003 19 93 0.0 1.6 0.00 0.00 0.00 69 1013.5
20260508230503 19 93 0.0 1.6 0.00 0.00 0.00 67 1013.3
20260508230003 19 0 0.0 0.0 0.00 0.00 0.00 66 1013.3
20260508225503 20 92 0.0 3.2 0.00 0.00 0.00 64 1013.4
20260508225003 20 92 0.0 3.2 0.00 0.00 0.00 64 1013.3
20260508224503 20 87 0.0 1.6 0.00 0.00 0.00 64 1013.4
20260508224003 20 89 0.0 3.2 0.00 0.00 0.00 61 1013.3
20260508223503 20 95 0.0 3.2 0.00 0.00 0.00 61 1013.4
20260508223024 20 95 0.0 3.2 0.00 0.00 0.00 63 1013.4
20260508222504 20 94 0.0 3.2 0.00 0.00 0.00 64 1013.5
20260508222003 20 98 0.0 1.6 0.00 0.00 0.00 63 1013.4
20260508221503 20 105 0.0 1.6 0.00 0.00 0.00 60 1013.4
20260508221003 20 109 0.0 3.2 0.00 0.00 0.00 62 1013.3
20260508220503 20 63 0.0 4.8 0.00 0.00 0.00 61 1013.3
20260508220003 20 63 1.6 4.8 0.00 0.00 0.00 61 1013.4
20260508215503 20 98 0.0 3.2 0.00 0.00 0.00 60 1013.3
20260508215024 20 112 0.0 4.8 0.00 0.00 0.00 58 1013.2
20260508214524 21 111 0.0 4.8 0.00 0.00 0.00 58 1013.3
20260508214003 21 106 0.0 1.6 0.00 0.00 0.00 60 1013.2
20260508213524 21 106 0.0 1.6 0.00 0.00 0.00 58 1013.3
20260508213003 21 107 0.0 4.8 0.00 0.00 0.00 60 1013.4
20260508212503 21 101 1.6 4.8 0.00 0.00 0.00 57 1013.4
20260508212003 21 78 0.0 3.2 0.00 0.00 0.00 58 1013.4
20260508211503 21 57 0.0 6.4 0.00 0.00 0.00 58 1013.5
20260508211003 21 63 1.6 6.4 0.00 0.00 0.00 56 1013.4
20260508210503 21 74 1.6 4.8 0.00 0.00 0.00 56 1013.3
20260508210003 21 68 1.6 4.8 0.00 0.00 0.00 55 1013.3
20260508205503 21 85 1.6 8.0 0.00 0.00 0.00 53 1013.4
20260508205003 21 88 1.6 8.0 0.00 0.00 0.00 53 1013.4
20260508204503 21 67 1.6 4.8 0.00 0.00 0.00 54 1013.4
20260508204024 21 51 1.6 4.8 0.00 0.00 0.00 54 1013.4
20260508203524 21 11 1.6 9.7 0.00 0.00 0.00 52 1013.5
20260508203003 21 34 1.6 9.7 0.00 0.00 0.00 51 1013.5
20260508202503 21 60 1.6 6.4 0.00 0.00 0.00 53 1013.5
20260508202003 22 5 3.2 14.5 0.00 0.00 0.00 52 1013.4
20260508201503 22 317 1.6 14.5 0.00 0.00 0.00 50 1013.7
20260508201003 22 130 0.0 4.8 0.00 0.00 0.00 51 1013.7
20260508200503 22 20 1.6 4.8 0.00 0.00 0.00 50 1013.8
20260508200003 22 36 1.6 4.8 0.00 0.00 0.00 51 1013.9
20260508195524 22 33 1.6 6.4 0.00 0.00 0.00 51 1014.0
20260508195003 22 58 1.6 6.4 0.00 0.00 0.00 52 1014.1
20260508194503 22 111 1.6 6.4 0.00 0.00 0.00 52 1014.2
20260508194003 22 125 1.6 6.4 0.00 0.00 0.00 49 1014.2
20260508193524 22 99 1.6 8.0 0.00 0.00 0.00 51 1014.2
20260508193003 22 59 1.6 11.3 0.00 0.00 0.00 48 1014.3
20260508192503 22 51 1.6 11.3 0.00 0.00 0.00 52 1014.5
20260508192003 22 157 1.6 3.2 0.00 0.00 0.00 50 1014.5
20260508191503 22 87 1.6 6.4 0.00 0.00 0.00 49 1014.6
20260508191003 23 109 1.6 6.4 0.00 0.00 0.00 48 1014.6
20260508190503 23 127 1.6 6.4 0.00 0.00 0.00 47 1014.5
20260508190003 23 97 1.6 6.4 0.00 0.00 0.00 46 1014.6
20260508185503 23 51 3.2 9.7 0.00 0.00 0.00 47 1014.7
20260508185003 23 24 3.2 9.7 0.00 0.00 0.00 49 1015.0
20260508184504 22 31 1.6 9.7 0.00 0.00 0.00 50 1015.0
20260508184003 22 95 1.6 4.8 0.00 0.00 0.00 51 1015.0
20260508183524 22 17 1.6 9.7 0.00 0.00 0.00 52 1015.2
20260508183003 22 7 1.6 9.7 0.00 0.00 0.00 50 1015.2
20260508182503 22 84 1.6 3.2 0.00 0.00 0.00 53 1015.3
20260508182003 21 98 1.6 4.8 0.00 0.00 0.00 53 1015.3
20260508181503 21 38 1.6 8.0 0.00 0.00 0.00 52 1015.3
20260508181003 21 36 1.6 8.0 0.00 0.00 0.00 53 1015.6
20260508180503 21 77 1.6 4.8 0.00 0.00 0.00 51 1015.5
20260508180003 21 83 1.6 6.4 0.00 0.00 0.00 51 1015.6
20260508175503 22 38 1.6 6.4 0.00 0.00 0.00 52 1015.7
20260508175003 21 54 1.6 6.4 0.00 0.00 0.00 52 1015.7
20260508174503 21 106 1.6 6.4 0.00 0.00 0.00 54 1015.8
20260508174003 21 74 1.6 9.7 0.00 0.00 0.00 54 1015.8
20260508173503 21 75 1.6 9.7 0.00 0.00 0.00 51 1015.8
20260508173003 21 146 1.6 4.8 0.00 0.00 0.00 51 1016.0
20260508172503 21 96 1.6 8.0 0.00 0.00 0.00 50 1015.9
20260508172003 21 36 1.6 8.0 0.00 0.00 0.00 50 1015.9
20260508171503 21 73 1.6 11.3 0.00 0.00 0.00 53 1016.1
20260508171003 21 93 3.2 11.3 0.00 0.00 0.00 55 1016.2
20260508170503 21 82 3.2 6.4 0.00 0.00 0.00 54 1016.3
20260508170003 20 96 1.6 6.4 0.00 0.00 0.00 53 1016.3
20260508165503 20 112 1.6 8.0 0.00 0.00 0.00 55 1016.4
20260508165024 20 103 1.6 8.0 0.00 0.00 0.00 56 1016.5
20260508164503 21 84 0.0 3.2 0.00 0.00 0.00 53 1016.6
20260508164024 21 91 0.0 3.2 0.00 0.00 0.00 54 1016.7
20260508163524 21 112 0.0 3.2 0.00 0.00 0.00 51 1016.8
20260508163003 21 190 1.6 8.0 0.00 0.00 0.00 53 1016.9
20260508162503 20 176 1.6 8.0 0.00 0.00 0.00 53 1016.9
20260508162024 20 136 1.6 6.4 0.00 0.00 0.00 55 1016.9
20260508161503 20 165 1.6 6.4 0.00 0.00 0.00 54 1016.9
20260508161003 20 190 1.6 8.0 0.00 0.00 0.00 53 1016.9
20260508160503 20 197 1.6 8.0 0.00 0.00 0.00 49 1017.0
20260508160003 21 349 0.0 4.8 0.00 0.00 0.00 50 1017.1
20260508155503 21 210 1.6 6.4 0.00 0.00 0.00 54 1017.2
20260508155003 21 93 1.6 6.4 0.00 0.00 0.00 51 1017.2
20260508154503 21 60 1.6 6.4 0.00 0.00 0.00 53 1017.4
20260508154024 21 45 1.6 4.8 0.00 0.00 0.00 52 1017.4
20260508153503 20 35 1.6 8.0 0.00 0.00 0.00 54 1017.4
20260508153003 20 46 3.2 8.0 0.00 0.00 0.00 53 1017.5
20260508152503 20 36 1.6 8.0 0.00 0.00 0.00 54 1017.5
20260508152003 20 20 1.6 8.0 0.00 0.00 0.00 56 1017.6
20260508151503 20 159 1.6 4.8 0.00 0.00 0.00 54 1017.5
20260508151003 20 134 1.6 4.8 0.00 0.00 0.00 52 1017.5
20260508150503 20 162 1.6 6.4 0.00 0.00 0.00 54 1017.5
20260508150004 20 70 1.6 9.7 0.00 0.00 0.00 57 1017.4
20260508145503 19 109 1.6 9.7 0.00 0.00 0.00 56 1017.4
20260508145024 19 142 1.6 11.3 0.00 0.00 0.00 60 1017.4
20260508144524 19 93 1.6 11.3 0.00 0.00 0.00 58 1017.3
20260508144003 18 84 1.6 4.8 0.00 0.00 0.00 59 1017.3
20260508143503 18 120 1.6 4.8 0.00 0.00 0.00 61 1017.3
20260508143003 18 131 1.6 6.4 0.00 0.00 0.00 63 1017.3
20260508142503 18 111 1.6 6.4 0.00 0.00 0.00 60 1017.4
20260508142024 18 94 1.6 6.4 0.00 0.00 0.00 61 1017.5
20260508141503 17 93 1.6 6.4 0.00 0.00 0.00 64 1017.5
20260508141003 17 129 1.6 6.4 0.00 0.00 0.00 64 1017.6
20260508140503 17 146 1.6 4.8 0.00 0.00 0.00 65 1017.7
20260508140004 16 82 1.6 6.4 0.00 0.00 0.00 66 1017.8
20260508135524 16 67 1.6 6.4 0.00 0.00 0.00 67 1017.7
20260508135003 16 130 1.6 4.8 0.00 0.00 0.00 69 1017.7
20260508134503 16 126 1.6 4.8 0.00 0.00 0.00 71 1017.7
20260508134024 15 102 1.6 4.8 0.00 0.00 0.00 69 1017.8
20260508133503 15 185 0.0 3.2 0.00 0.00 0.00 73 1017.8
20260508133003 15 259 0.0 3.2 0.00 0.00 0.00 75 1017.8
20260508132503 15 135 1.6 8.0 0.00 0.00 0.00 75 1017.7
20260508132003 15 135 1.6 8.0 0.00 0.00 0.00 77 1017.7
20260508131503 14 159 0.0 3.2 0.00 0.00 0.00 76 1017.7
20260508131003 14 211 0.0 3.2 0.00 0.00 0.00 79 1017.6
20260508130503 14 191 0.0 3.2 0.00 0.00 0.00 78 1017.5
20260508130003 14 169 0.0 3.2 0.00 0.00 0.00 81 1017.5
20260508125503 13 244 0.0 3.2 0.00 0.00 0.00 82 1017.4
20260508125003 13 250 0.0 3.2 0.00 0.00 0.00 83 1017.4
20260508124503 13 263 0.0 3.2 0.00 0.00 0.00 85 1017.2
20260508124024 13 264 0.0 1.6 0.00 0.00 0.00 87 1017.3
20260508123503 13 264 0.0 1.6 0.00 0.00 0.00 89 1017.2
20260508123003 12 270 0.0 1.6 0.00 0.00 0.00 90 1017.2
20260508122503 12 270 0.0 1.6 0.00 0.00 0.00 91 1017.2
20260508122024 12 0 0.0 0.0 0.00 0.00 0.00 92 1017.1
20260508121503 12 131 0.0 1.6 0.00 0.00 0.00 92 1017.0
20260508121003 11 131 0.0 1.6 0.00 0.00 0.00 93 1016.9
20260508120524 11 131 0.0 1.6 0.00 0.00 0.00 94 1016.9
20260508120003 11 0 0.0 1.6 0.00 0.00 0.00 94 1016.9
20260508115524 11 0 0.0 0.0 0.00 0.00 0.00 94 1016.8
20260508115003 10 0 0.0 0.0 0.00 0.00 0.00 94 1016.7
20260508114503 10 0 0.0 1.6 0.00 0.00 0.00 94 1016.7
20260508114003 10 0 0.0 1.6 0.00 0.00 0.00 94 1016.6
20260508113503 10 0 0.0 0.0 0.00 0.00 0.00 94 1016.5
20260508113024 10 0 0.0 0.0 0.00 0.00 0.00 94 1016.4
20260508112503 10 0 0.0 0.0 0.00 0.00 0.00 94 1016.2
20260508112003 10 0 0.0 1.6 0.00 0.00 0.00 94 1016.1
20260508111503 10 0 0.0 1.6 0.00 0.00 0.00 94 1016.1
20260508111003 10 0 0.0 0.0 0.00 0.00 0.00 94 1016.0
20260508110503 10 0 0.0 1.6 0.00 0.00 0.00 93 1015.9
20260508110003 10 0 0.0 1.6 0.00 0.00 0.00 94 1015.8
20260508105503 10 0 0.0 0.0 0.00 0.00 0.00 94 1015.5
20260508105003 9 0 0.0 0.0 0.00 0.00 0.00 93 1015.5
20260508104503 10 0 0.0 0.0 0.00 0.00 0.00 93 1015.5
20260508104003 10 0 0.0 0.0 0.00 0.00 0.00 93 1015.4
20260508103503 10 0 0.0 0.0 0.00 0.00 0.00 92 1015.4
20260508103003 10 0 0.0 0.0 0.00 0.00 0.00 92 1015.4
20260508102503 10 0 0.0 0.0 0.00 0.00 0.00 92 1015.2
20260508102003 10 0 0.0 0.0 0.00 0.00 0.00 92 1015.1
20260508101503 10 0 0.0 0.0 0.00 0.00 0.00 92 1015.1
20260508101003 10 0 0.0 1.6 0.00 0.00 0.00 91 1015.0
20260508100524 10 0 0.0 1.6 0.00 0.00 0.00 91 1014.9
20260508100003 10 0 0.0 0.0 0.00 0.00 0.00 91 1014.9
20260508095503 10 149 0.0 1.6 0.00 0.00 0.00 90 1014.9
20260508095003 10 149 0.0 1.6 0.00 0.00 0.00 90 1014.7
20260508094503 11 150 0.0 1.6 0.00 0.00 0.00 90 1014.7
20260508094003 11 149 0.0 1.6 0.00 0.00 0.00 90 1014.6
20260508093503 11 149 0.0 1.6 0.00 0.00 0.00 89 1014.7
20260508093003 11 149 0.0 1.6 0.00 0.00 0.00 89 1014.7
20260508092524 11 149 0.0 1.6 0.00 0.00 0.00 90 1014.6
20260508092003 11 149 0.0 1.6 0.00 0.00 0.00 90 1014.5
20260508091503 11 149 0.0 1.6 0.00 0.00 0.00 90 1014.4
20260508091003 11 0 0.0 0.0 0.00 0.00 0.00 90 1014.3
20260508090503 11 149 0.0 3.2 0.00 0.00 0.00 90 1014.3
20260508090003 11 137 0.0 3.2 0.00 0.00 0.00 90 1014.3
20260508085503 11 109 0.0 1.6 0.00 0.00 0.00 91 1014.3
20260508085003 11 91 0.0 1.6 0.00 0.00 0.00 91 1014.2
20260508084503 11 91 0.0 3.2 0.00 0.00 0.00 91 1014.2
20260508084003 11 91 0.0 3.2 0.00 0.00 0.00 91 1014.3
20260508083503 11 0 0.0 0.0 0.00 0.00 0.00 91 1014.2
20260508083003 11 121 0.0 1.6 0.00 0.00 0.00 91 1014.1
20260508082503 11 121 0.0 1.6 0.00 0.00 0.00 92 1014.1
20260508082003 11 0 0.0 0.0 0.00 0.00 0.00 92 1014.2
20260508081503 11 0 0.0 0.0 0.00 0.00 0.00 93 1014.2
20260508081003 11 0 0.0 0.0 0.00 0.00 0.00 92 1014.1
20260508080503 11 0 0.0 0.0 0.00 0.00 0.00 93 1014.2
20260508080003 11 0 0.0 0.0 0.00 0.00 0.00 93 1014.3
20260508075503 11 0 0.0 0.0 0.00 0.00 0.00 93 1014.2
20260508075003 11 0 0.0 0.0 0.00 0.00 0.00 94 1014.2
20260508074524 11 0 0.0 0.0 0.00 0.00 0.00 94 1014.2
20260508074003 10 0 0.0 0.0 0.00 0.00 0.00 94 1014.0
20260508073503 10 0 0.0 0.0 0.00 0.00 0.00 94 1014.1
20260508073003 10 0 0.0 0.0 0.00 0.00 0.00 94 1014.2
20260508072503 10 0 0.0 0.0 0.00 0.00 0.00 94 1014.1
20260508072003 10 121 0.0 1.6 0.00 0.00 0.00 93 1014.1
20260508071503 10 122 0.0 1.6 0.00 0.00 0.00 93 1014.1
20260508071003 10 122 0.0 1.6 0.00 0.00 0.00 93 1014.0
20260508070503 10 0 0.0 0.0 0.00 0.00 0.00 93 1013.9
20260508070003 10 0 0.0 0.0 0.00 0.00 0.00 93 1013.8
20260508065503 10 0 0.0 0.0 0.00 0.00 0.00 93 1013.7
20260508065003 10 0 0.0 0.0 0.00 0.00 0.00 93 1013.7
20260508064503 10 0 0.0 0.0 0.00 0.00 0.00 93 1013.8
20260508064003 10 0 0.0 0.0 0.00 0.00 0.00 93 1013.7
20260508063503 11 0 0.0 0.0 0.00 0.00 0.00 93 1013.7
20260508063024 11 122 0.0 1.6 0.00 0.00 0.00 93 1013.7
20260508062503 11 122 0.0 1.6 0.00 0.00 0.00 93 1013.7
20260508062003 11 117 0.0 1.6 0.00 0.00 0.00 93 1013.7
20260508061503 11 113 0.0 1.6 0.00 0.00 0.00 93 1013.7
20260508061003 11 100 0.0 1.6 0.00 0.00 0.00 93 1013.8
20260508060503 11 0 0.0 0.0 0.00 0.00 0.00 93 1013.8
20260508060003 11 0 0.0 0.0 0.00 0.00 0.00 92 1013.9
20260508055503 11 100 0.0 1.6 0.00 0.00 0.00 92 1013.9
20260508055003 11 101 0.0 1.6 0.00 0.00 0.00 92 1013.9
20260508054503 11 101 0.0 1.6 0.00 0.00 0.00 91 1013.8
20260508054003 11 0 0.0 0.0 0.00 0.00 0.00 91 1013.9
20260508053503 11 0 0.0 0.0 0.00 0.00 0.00 91 1014.1
20260508053003 11 0 0.0 0.0 0.00 0.00 0.00 91 1014.0
20260508052503 11 0 0.0 0.0 0.00 0.00 0.00 90 1013.9
20260508052024 11 0 0.0 0.0 0.00 0.00 0.00 90 1013.8
20260508051503 11 0 0.0 0.0 0.00 0.00 0.00 90 1013.8
20260508051003 12 0 0.0 0.0 0.00 0.00 0.00 89 1013.8
20260508050503 12 101 0.0 1.6 0.00 0.00 0.00 89 1013.9
20260508050003 12 101 0.0 1.6 0.00 0.00 0.00 89 1013.8
20260508045503 12 0 0.0 0.0 0.00 0.00 0.00 88 1013.7
20260508045003 12 0 0.0 0.0 0.00 0.00 0.00 88 1013.7
20260508044503 12 100 0.0 1.6 0.00 0.00 0.00 86 1013.6
20260508044003 12 100 0.0 1.6 0.00 0.00 0.00 86 1013.7
20260508043503 12 101 0.0 1.6 0.00 0.00 0.00 87 1013.6
20260508043003 12 101 0.0 1.6 0.00 0.00 0.00 86 1013.6
20260508042503 12 0 0.0 0.0 0.00 0.00 0.00 85 1013.5
20260508042003 12 0 0.0 0.0 0.00 0.00 0.00 85 1013.4
20260508041504 13 0 0.0 0.0 0.00 0.00 0.00 85 1013.3
20260508041003 13 0 0.0 0.0 0.00 0.00 0.00 84 1013.3
20260508040503 13 0 0.0 0.0 0.00 0.00 0.00 83 1013.3
20260508040003 13 0 0.0 0.0 0.00 0.00 0.00 82 1013.4
20260508035503 13 0 0.0 0.0 0.00 0.00 0.00 82 1013.3
20260508035003 13 0 0.0 0.0 0.00 0.00 0.00 81 1013.6
20260508034503 13 0 0.0 0.0 0.00 0.00 0.00 80 1013.5
20260508034003 13 0 0.0 0.0 0.00 0.00 0.00 80 1013.4
20260508033503 13 0 0.0 0.0 0.00 0.00 0.00 80 1013.4
20260508033003 13 0 0.0 0.0 0.00 0.00 0.00 80 1013.4
20260508032503 14 0 0.0 0.0 0.00 0.00 0.00 79 1013.5
20260508032024 14 0 0.0 0.0 0.00 0.00 0.00 78 1013.4
20260508031503 14 0 0.0 0.0 0.00 0.00 0.00 77 1013.4
20260508031003 14 0 0.0 0.0 0.00 0.00 0.00 76 1013.2
20260508030503 15 0 0.0 0.0 0.00 0.00 0.00 76 1013.3
20260508030003 15 0 0.0 0.0 0.00 0.00 0.00 75 1013.3
20260508025503 15 0 0.0 0.0 0.00 0.00 0.00 74 1013.3
20260508025024 15 0 0.0 0.0 0.00 0.00 0.00 74 1013.2
20260508024503 15 110 0.0 3.2 0.00 0.00 0.00 72 1013.1
20260508024003 15 110 0.0 3.2 0.00 0.00 0.00 73 1013.0
20260508023524 15 139 0.0 1.6 0.00 0.00 0.00 72 1012.9
20260508023024 15 100 0.0 1.6 0.00 0.00 0.00 72 1012.7
20260508022503 15 114 0.0 1.6 0.00 0.00 0.00 70 1012.8
20260508022003 16 174 0.0 1.6 0.00 0.00 0.00 71 1012.7
20260508021503 16 205 0.0 4.8 0.00 0.00 0.00 73 1012.6
20260508021024 16 214 0.0 4.8 0.00 0.00 0.00 70 1012.5
20260508020503 16 204 1.6 4.8 0.00 0.00 0.00 71 1012.5
20260508020003 16 139 1.6 4.8 0.00 0.00 0.00 69 1012.3
20260508015503 16 143 1.6 8.0 0.00 0.00 0.00 69 1012.3
20260508015003 16 198 1.6 8.0 0.00 0.00 0.00 70 1012.1
20260508014524 16 166 1.6 8.0 0.00 0.00 0.00 70 1011.8
20260508014024 16 146 1.6 9.7 0.00 0.00 0.00 70 1011.8
20260508013503 17 174 1.6 9.7 0.00 0.00 0.00 71 1011.7
20260508013024 17 177 0.0 6.4 0.00 0.00 0.00 73 1011.5
20260508012503 17 167 1.6 6.4 0.00 0.00 0.00 70 1011.4
20260508012003 17 172 1.6 6.4 0.00 0.00 0.00 70 1011.3
20260508011524 17 162 1.6 6.4 0.00 0.00 0.00 71 1011.2
20260508011003 17 142 1.6 4.8 0.00 0.00 0.00 69 1011.2
20260508010503 17 122 1.6 4.8 0.00 0.00 0.00 69 1011.0
20260508010003 17 110 1.6 4.8 0.00 0.00 0.00 68 1011.2
20260508005503 18 118 1.6 4.8 0.00 0.00 0.00 69 1010.8
20260508005003 18 138 1.6 6.4 0.00 0.00 0.00 69 1010.7
20260508004503 18 169 1.6 11.3 0.00 0.00 0.00 68 1010.6
20260508004003 18 164 1.6 11.3 0.00 0.00 0.00 66 1010.5
20260508003503 18 161 1.6 9.7 0.00 0.00 0.00 66 1010.2
20260508003003 19 159 1.6 9.7 0.00 0.00 0.00 66 1010.1